Location: Newark
(48.8833°N, 0.9236°W)
Time: 13:36:56
(UTC+00:00)

Transit 4A - Pass Details

Date: 23 November 2019
Orbit: 870 x 975 km, 66.8° (Epoch: 05 December)

Event Time Altitude Azimuth Distance (km) Brightness Sun altitude
Exits shadow 04:12:28 27° 5° (N) 1,650 9.2 -31.0°
Maximum altitude 04:14:18 32° 38° (NE) 1,470 9.2 -30.7°
Drops below altitude 10° 04:19:30 10° 101° (E) 2,526 11.0 -29.9°
Sets 04:22:14 0° 111° (ESE) 3,455 11.9 -29.4°
